When you browse on this site, cookies collect data to enhance your experience and personalize the content and advertising you see.
Visit our Privacy Policy to learn more. By continuing to use the site, you agree to this use of cookies and data.
  • En España
  • Lista de países
  • Para 7 días
  • Temperatura del agua
  • El tiempo en el mapa
  • Informadores
  • user-avatar
    Iniciar sesión

    Tiempo cada hora Aktau

    Hoy, 20 Agosto, Martes

    Tiempo Temperatura Precipitaciones Viento Presión Humedad
    00:00 +32°C° 0 mm 5 mps 761 mmHg 19%
    01:00 +30°C° 0 mm 5 mps 761 mmHg 21%
    02:00 +29°C° 0 mm 5 mps 761 mmHg 24%
    03:00 +29°C° 0 mm 5 mps 761 mmHg 26%
    04:00 +29°C° 0 mm 5 mps 762 mmHg 26%
    05:00 +29°C° 0 mm 4 mps 762 mmHg 27%
    06:00 +29°C° 0 mm 4 mps 762 mmHg 27%
    07:00 +32°C° 0 mm 4 mps 762 mmHg 24%
    08:00 +34°C° 0 mm 5 mps 762 mmHg 21%
    09:00 +36°C° 0 mm 5 mps 762 mmHg 17%
    10:00 +37°C° 0 mm 5 mps 762 mmHg 16%
    11:00 +39°C° 0 mm 5 mps 762 mmHg 14%
    12:00 +40°C° 0 mm 5 mps 762 mmHg 13%
    13:00 +40°C° 0 mm 5 mps 762 mmHg 13%
    14:00 +40°C° 0 mm 5 mps 761 mmHg 14%
    15:00 +39°C° 0 mm 5 mps 761 mmHg 14%
    16:00 +37°C° 0 mm 4 mps 761 mmHg 15%
    17:00 +36°C° 0 mm 4 mps 761 mmHg 17%
    18:00 +35°C° 0 mm 4 mps 760 mmHg 18%
    19:00 +34°C° 0 mm 4 mps 760 mmHg 19%
    20:00 +33°C° 0 mm 4 mps 760 mmHg 20%
    21:00 +32°C° 0 mm 5 mps 760 mmHg 21%
    22:00 +32°C° 0 mm 4 mps 760 mmHg 21%
    23:00 +32°C° 0 mm 4 mps 760 mmHg 22%

    Mañana, 21 Agosto, Miércoles

    Tiempo Temperatura Precipitaciones Viento Presión Humedad
    00:00 +32°C° 0 mm 4 mps 760 mmHg 22%
    01:00 +30°C° 0 mm 4 mps 760 mmHg 21%
    02:00 +30°C° 0 mm 4 mps 760 mmHg 21%
    03:00 +29°C° 0 mm 5 mps 760 mmHg 20%
    04:00 +29°C° 0 mm 4 mps 759 mmHg 23%
    05:00 +29°C° 0 mm 4 mps 759 mmHg 26%
    06:00 +29°C° 0 mm 4 mps 759 mmHg 29%
    07:00 +32°C° 0 mm 4 mps 759 mmHg 25%
    08:00 +35°C° 0 mm 4 mps 760 mmHg 21%
    09:00 +37°C° 0 mm 3 mps 760 mmHg 16%
    10:00 +38°C° 0 mm 4 mps 760 mmHg 15%
    11:00 +40°C° 0 mm 4 mps 759 mmHg 14%
    12:00 +41°C° 0 mm 4 mps 759 mmHg 13%
    13:00 +40°C° 0 mm 4 mps 759 mmHg 14%
    14:00 +40°C° 0 mm 4 mps 759 mmHg 14%
    15:00 +40°C° 0 mm 4 mps 758 mmHg 14%
    16:00 +38°C° 0 mm 4 mps 758 mmHg 15%
    17:00 +37°C° 0 mm 4 mps 758 mmHg 16%
    18:00 +36°C° 0 mm 4 mps 757 mmHg 17%
    19:00 +35°C° 0 mm 4 mps 757 mmHg 18%
    20:00 +34°C° 0 mm 4 mps 757 mmHg 19%
    21:00 +34°C° 0 mm 4 mps 757 mmHg 20%
    22:00 +33°C° 0 mm 4 mps 757 mmHg 21%
    23:00 +32°C° 0 mm 4 mps 757 mmHg 22%

    Pasado mañana, 22 Agosto, Jueves

    Tiempo Temperatura Precipitaciones Viento Presión Humedad
    00:00 +30°C° 0 mm 3 mps 757 mmHg 23%
    01:00 +30°C° 0 mm 4 mps 757 mmHg 23%
    02:00 +30°C° 0 mm 4 mps 757 mmHg 23%
    03:00 +30°C° 0 mm 4 mps 757 mmHg 23%
    04:00 +30°C° 0 mm 3 mps 757 mmHg 22%
    05:00 +31°C° 0 mm 3 mps 757 mmHg 21%
    06:00 +31°C° 0 mm 3 mps 757 mmHg 20%
    07:00 +34°C° 0 mm 3 mps 757 mmHg 18%
    08:00 +37°C° 0 mm 4 mps 757 mmHg 16%
    09:00 +40°C° 0 mm 4 mps 757 mmHg 15%
    10:00 +41°C° 0 mm 4 mps 757 mmHg 14%
    11:00 +42°C° 0 mm 4 mps 757 mmHg 14%
    12:00 +42°C° 0 mm 4 mps 757 mmHg 14%
    13:00 +42°C° 0 mm 4 mps 757 mmHg 14%
    14:00 +42°C° 0 mm 4 mps 756 mmHg 15%
    15:00 +41°C° 0 mm 5 mps 756 mmHg 16%
    16:00 +40°C° 0 mm 5 mps 756 mmHg 17%
    17:00 +39°C° 0 mm 5 mps 756 mmHg 19%
    18:00 +37°C° 0 mm 5 mps 756 mmHg 20%
    19:00 +36°C° 0 mm 5 mps 756 mmHg 20%
    20:00 +36°C° 0 mm 4 mps 756 mmHg 21%
    21:00 +35°C° 0 mm 4 mps 756 mmHg 21%
    22:00 +35°C° 0 mm 4 mps 756 mmHg 20%
    23:00 +34°C° 0 mm 4 mps 756 mmHg 19%

    23 Agosto, Viernes

    Tiempo Temperatura Precipitaciones Viento Presión Humedad
    00:00 +34°C° 0 mm 5 mps 756 mmHg 18%
    01:00 +33°C° 0 mm 5 mps 756 mmHg 20%
    02:00 +32°C° 0 mm 5 mps 756 mmHg 23%
    03:00 +32°C° 0 mm 5 mps 756 mmHg 25%
    04:00 +30°C° 0 mm 6 mps 756 mmHg 29%
    05:00 +30°C° 0 mm 7 mps 757 mmHg 33%
    06:00 +29°C° 0 mm 8 mps 757 mmHg 37%
    07:00 +32°C° 0 mm 8 mps 757 mmHg 32%
    08:00 +34°C° 0 mm 8 mps 757 mmHg 27%
    09:00 +37°C° 0 mm 8 mps 758 mmHg 22%
    10:00 +39°C° 0 mm 8 mps 758 mmHg 19%
    11:00 +41°C° 0 mm 7 mps 758 mmHg 17%
    12:00 +43°C° 0 mm 7 mps 758 mmHg 14%
    13:00 +42°C° 0 mm 6 mps 757 mmHg 14%
    14:00 +44°C° 0 mm 6 mps 757 mmHg 13%
    15:00 +43°C° 0 mm 5 mps 757 mmHg 13%
    16:00 +42°C° 0 mm 4 mps 757 mmHg 14%
    17:00 +39°C° 0 mm 3 mps 757 mmHg 15%
    18:00 +38°C° 0 mm 3 mps 757 mmHg 17%
    19:00 +37°C° 0 mm 3 mps 757 mmHg 17%
    20:00 +36°C° 0 mm 4 mps 757 mmHg 18%
    21:00 +35°C° 0 mm 5 mps 757 mmHg 19%
    22:00 +34°C° 0 mm 6 mps 757 mmHg 18%
    23:00 +34°C° 0 mm 6 mps 757 mmHg 18%

    24 Agosto, Sábado

    Tiempo Temperatura Precipitaciones Viento Presión Humedad
    00:00 +33°C° 0 mm 7 mps 757 mmHg 17%
    01:00 +32°C° 0 mm 6 mps 757 mmHg 20%
    02:00 +29°C° 0 mm 6 mps 757 mmHg 23%
    03:00 +28°C° 0 mm 5 mps 757 mmHg 25%
    04:00 +28°C° 0 mm 5 mps 757 mmHg 26%
    05:00 +27°C° 0 mm 5 mps 758 mmHg 27%
    06:00 +27°C° 0 mm 5 mps 758 mmHg 28%
    07:00 +30°C° 0 mm 5 mps 758 mmHg 23%
    08:00 +33°C° 0 mm 6 mps 758 mmHg 19%
    09:00 +35°C° 0 mm 6 mps 758 mmHg 14%
    10:00 +36°C° 0 mm 6 mps 758 mmHg 13%
    11:00 +38°C° 0 mm 6 mps 758 mmHg 13%
    12:00 +39°C° 0 mm 5 mps 757 mmHg 12%
    13:00 +39°C° 0 mm 5 mps 757 mmHg 12%
    14:00 +38°C° 0 mm 4 mps 757 mmHg 12%
    15:00 +38°C° 0 mm 4 mps 756 mmHg 12%
    16:00 +36°C° 0 mm 4 mps 756 mmHg 13%
    17:00 +35°C° 0 mm 3 mps 756 mmHg 15%
    18:00 +33°C° 0 mm 3 mps 756 mmHg 17%
    19:00 +31°C° 0 mm 3 mps 756 mmHg 17%
    20:00 +30°C° 0 mm 2 mps 756 mmHg 18%
    21:00 +29°C° 0 mm 1 mps 756 mmHg 19%
    22:00 +28°C° 0 mm 1 mps 756 mmHg 20%
    23:00 +28°C° 0 mm 1 mps 756 mmHg 21%

    25 Agosto, Domingo

    Tiempo Temperatura Precipitaciones Viento Presión Humedad
    00:00 +25°C° 0 mm 0 mps 756 mmHg 22%
    01:00 +27°C° 0 mm 1 mps 756 mmHg 23%
    02:00 +27°C° 0 mm 2 mps 756 mmHg 23%
    03:00 +27°C° 0 mm 3 mps 756 mmHg 24%
    04:00 +27°C° 0 mm 2 mps 756 mmHg 27%
    05:00 +27°C° 0 mm 2 mps 756 mmHg 30%
    06:00 +27°C° 0 mm 1 mps 756 mmHg 33%
    07:00 +28°C° 0 mm 2 mps 756 mmHg 30%
    08:00 +29°C° 0 mm 2 mps 756 mmHg 27%
    09:00 +31°C° 0 mm 3 mps 757 mmHg 24%
    10:00 +32°C° 0 mm 4 mps 757 mmHg 29%
    11:00 +32°C° 0 mm 5 mps 757 mmHg 35%
    12:00 +33°C° 0 mm 6 mps 757 mmHg 40%
    13:00 +32°C° 0 mm 6 mps 757 mmHg 41%
    14:00 +32°C° 0 mm 5 mps 757 mmHg 42%
    15:00 +32°C° 0 mm 5 mps 757 mmHg 43%
    16:00 +32°C° 0 mm 6 mps 757 mmHg 45%
    17:00 +30°C° 0 mm 7 mps 757 mmHg 47%
    18:00 +31°C° 0 mm 8 mps 757 mmHg 49%
    19:00 +29°C° 0 mm 8 mps 758 mmHg 51%
    20:00 +28°C° 0 mm 8 mps 758 mmHg 52%
    21:00 +27°C° 0 mm 8 mps 759 mmHg 54%
    22:00 +26°C° 0 mm 8 mps 759 mmHg 51%
    23:00 +24°C° 0 mm 7 mps 760 mmHg 48%
    Mostrar más